Погода в Кипелове

Россия / Вологодская область     59°14′11″N   39°08′28″E
темп.,
°C
ветер,
м/с
пор.,
м/с
влажн.,
%
обл.,
%
осадки,
мм/ч
давл.,
гПа
погр.,
м
22 октября, пт
пт2200:00+10ююз51395100 0.1 987642
03:00+9ююз71592100 0.2 983934
06:00+10юз71684100 2.4 9821339
09:00+10зюз7157733 2.6 9831268
12:00+10зюз714675 0.1 9851340
15:00+9юз6136690 0.1 9861592
18:00+6зюз613706 0.1 9881140
21:00+5юз7157457 0.1 9901270
23 октября, сб
сб2300:00+5юз7157372 0.0 9911274
03:00+5юз7146887 0.1 9921497
06:00+4юз61594100 0.6 9931266
09:00+5юз61384100 0.6 9941096
12:00+6юз6117993 0.2 9961071
15:00+5юз5986100 0.3 998953
18:00+4зюз3696100 1.0 999800
21:00+3юз239391 1.7 1001124
24 октября, вс
вс2400:00+4зюз2592100 0.0 1002341
03:00+3зюз2495100 0.1 1003434
06:00+3зсз2497100 0.4 1004514
09:00+1ссз4997100 1.7 1006407
12:000с61094100 1.3 1009784
15:000с61180100 1.8 10131038
18:00−1с511817 0.0 1017837
21:00−2ссз412855 0.0 1020609
25 октября, пн
пн2500:00−2сз310865 0.0 1022404
03:00−2зсз311895 0.0 1023473
06:00−3зсз38885 0.0 1024287
09:00−2з387451 0.0 1025312
12:00+1зюз475986 0.0 1025624
15:00+1юз4965100 0.0 1024804
18:00−1ююз51395100 0.4 1022661
21:000юз61496100 2.1 1019786
26 октября, вт
вт2600:000юз61497100 1.6 1018739
03:00+1юз61497100 3.5 1017673
06:00+1зюз51497100 1.1 1016587
09:00+1зюз51292100 1.2 1016540
12:00+2зюз51287100 0.0 1016526
15:00+3юз51184100 0.0 1014595
18:00+1юз51288100 0.0 1014439
21:00+1юз41290100 0.0 1013421